Location: Azul
(36.7830°S, 59.8500°W)
Time: 18:33:35
(UTC-03:00)

Hubble Space Telescope - Visible Passes

Search period start: 29 November 2023 00:00
Search period end: 09 December 2023 00:00
Orbit: 519 x 523 km, 28.5° (Epoch: 28 November)

Date Brightness Start Highest point End Pass type
(mag) Time Alt. Az. Time Alt. Az. Time Alt. Az.
01 Dec 2.2 04:51:45 10° NW 04:54:58 22° N 04:58:10 10° ENE visible
02 Dec 2.1 04:36:07 14° NW 04:38:32 23° N 04:41:49 10° ENE visible
03 Dec 2.0 04:20:32 19° NNW 04:22:06 24° N 04:25:25 10° ENE visible
04 Dec 1.9 04:04:57 24° NNW 04:05:38 25° N 04:09:00 10° ENE visible
05 Dec 2.0 03:49:27 25° N 03:49:27 25° N 03:52:33 10° ENE visible
06 Dec 2.4 03:34:01 21° NNE 03:34:01 21° NNE 03:36:03 10° NE visible
07 Dec 3.0 03:18:44 14° NE 03:18:44 14° NE 03:19:32 10° NE visible
07 Dec 2.5 04:53:50 10° NW 04:56:25 16° NNW 04:59:00 10° NNE visible
08 Dec 2.5 04:38:37 13° NW 04:39:52 15° NNW 04:42:11 10° NNE visible
